Idabel, OK

12:47 PM CDT on April 19, 2018 (GMT -0500)
Idabel

Weather History for K4O4 - March, 2013

Change the Weather History Date:

Wednesday, March 13, 2013

  Actual Average (KPRX) Record (KPRX)
Temperature  
Mean Temperature 50 °F -  
Max Temperature 68 °F 61 °F 78 °F (2012)
Min Temperature 33 °F 42 °F 33 °F (2014)
Degree Days  
Heating Degree Days 14    
Moisture  
Dew Point 26 °F    
Average Humidity 43    
Maximum Humidity 81    
Minimum Humidity 16    
Precipitation  
Precipitation 0.00 in - - ()
Sea Level Pressure  
Sea Level Pressure 30.39 in    
Wind  
Wind Speed 5 mph (NNE)    
Max Wind Speed 8 mph    
Max Gust Speed 17 mph    
Visibility 10 miles    
Events      
Averages and records for this station are not official NWS values.
T = Trace of Precipitation, MM = Missing Value Source: NWS Daily Summary

Daily Weather History Graph

Daily Weather History Graph

Search for Another Location

Airport or City:

Astronomy

Mar. 13, 2013 Rise Set
Actual Time 7:32 AM CDT 7:25 PM CDT
Civil Twilight 7:07 AM CDT 7:50 PM CDT
Nautical Twilight 6:38 AM CDT 8:19 PM CDT
Astronomical Twilight 6:09 AM CDT 8:48 PM CDT
Moon 8:19 AM CDT (3/13) 9:34 PM CDT (3/13)
Length of Visible Light 12h 43m
Length of Day
11h 53m
Waxing Crescent, 4% of the Moon is Illuminated
Mar 13
Waxing Crescent
Mar 19
First Quarter
Mar 27
Full
Apr 2
Last Quarter
Apr 10
New

Hourly Weather History & Observations

Time (CDT) Temp. Windchill Dew Point Humidity Pressure Visibility Wind Dir Wind Speed Gust Speed Precip Events Conditions
12:15 AM 46.4 °F 42.9 °F 35.6 °F 66% 30.31 in 10.0 mi North 6.9 mph - N/A   Clear
12:55 AM 44.6 °F 41.4 °F 35.6 °F 71% 30.32 in 10.0 mi North 5.8 mph - N/A   Clear
1:15 AM 44.6 °F 40.7 °F 35.6 °F 71% 30.33 in 10.0 mi North 6.9 mph - N/A   Clear
1:35 AM 44.6 °F 42.2 °F 33.8 °F 66% 30.33 in 10.0 mi NNW 4.6 mph - N/A   Clear
1:55 AM 44.6 °F 43.1 °F 33.8 °F 66% 30.34 in 10.0 mi NNW 3.5 mph - N/A   Clear
2:15 AM 42.8 °F 39.3 °F 33.8 °F 70% 30.34 in 10.0 mi North 5.8 mph - N/A   Clear
2:35 AM 42.8 °F 40.1 °F 33.8 °F 70% 30.35 in 10.0 mi North 4.6 mph - N/A   Clear
2:55 AM 42.8 °F 41.1 °F 33.8 °F 70% 30.35 in 10.0 mi North 3.5 mph - N/A   Clear
3:35 AM 41.0 °F 38.0 °F 32.0 °F 70% 30.36 in 10.0 mi North 4.6 mph - N/A   Clear
3:55 AM 41.0 °F 37.1 °F 32.0 °F 70% 30.36 in 10.0 mi North 5.8 mph - N/A   Clear
4:25 AM 41.0 °F 38.0 °F 32.0 °F 70% 30.36 in 10.0 mi North 4.6 mph - N/A   Clear
4:35 AM 41.0 °F 39.0 °F 32.0 °F 70% 30.36 in 10.0 mi North 3.5 mph - N/A   Clear
4:55 AM 39.2 °F 35.9 °F 32.0 °F 75% 30.37 in 10.0 mi North 4.6 mph - N/A   Clear
5:15 AM 39.2 °F 34.2 °F 30.2 °F 70% 30.37 in 10.0 mi North 6.9 mph - N/A   Clear
5:35 AM 37.4 °F 32.8 °F 30.2 °F 75% 30.37 in 10.0 mi North 5.8 mph - N/A   Clear
5:55 AM 37.4 °F 33.8 °F 30.2 °F 75% 30.38 in 10.0 mi North 4.6 mph - N/A   Clear
6:15 AM 37.4 °F 33.8 °F 30.2 °F 75% 30.38 in 10.0 mi North 4.6 mph - N/A   Clear
6:35 AM 35.6 °F - 28.4 °F 75% 30.38 in 10.0 mi Calm Calm - N/A   Clear
7:18 AM 35.6 °F 32.8 °F 26.6 °F 70% 30.40 in 10.0 mi NE 3.5 mph - N/A   Clear
7:35 AM 33.8 °F - 28.4 °F 81% 30.40 in 10.0 mi Calm Calm - N/A   Clear
7:55 AM 33.8 °F - 28.4 °F 81% 30.41 in 10.0 mi Calm Calm - N/A   Clear
8:15 AM 35.6 °F - 30.2 °F 81% 30.42 in 10.0 mi Calm Calm - N/A   Clear
8:35 AM 37.4 °F - 32.0 °F 81% 30.42 in 10.0 mi Calm Calm - N/A   Clear
8:55 AM 42.8 °F - 32.0 °F 66% 30.43 in 10.0 mi Calm Calm - N/A   Clear
9:15 AM 46.4 °F 44.3 °F 30.2 °F 53% 30.44 in 10.0 mi NNE 4.6 mph - N/A   Clear
9:35 AM 46.4 °F 44.3 °F 26.6 °F 46% 30.44 in 10.0 mi NE 4.6 mph - N/A   Clear
9:55 AM 50.0 °F - 26.6 °F 40% 30.45 in 10.0 mi North 3.5 mph - N/A   Clear
10:15 AM 50.0 °F - 23.0 °F 35% 30.45 in 10.0 mi NE 3.5 mph - N/A   Clear
10:35 AM 51.8 °F - 24.8 °F 35% 30.46 in 10.0 mi NNE 6.9 mph - N/A   Clear
10:55 AM 51.8 °F - 23.0 °F 33% 30.46 in 10.0 mi ENE 4.6 mph - N/A   Clear
11:15 AM 53.6 °F - 23.0 °F 30% 30.47 in 10.0 mi NNE 6.9 mph - N/A   Clear
11:35 AM 55.4 °F - 21.2 °F 26% 30.47 in 10.0 mi NNE 5.8 mph - N/A   Clear
11:55 AM 57.2 °F - 19.4 °F 23% 30.47 in 10.0 mi NNE 5.8 mph - N/A   Clear
12:15 PM 57.2 °F - 21.2 °F 25% 30.47 in 10.0 mi Calm Calm - N/A   Clear
12:35 PM 59.0 °F - 21.2 °F 23% 30.46 in 10.0 mi Calm Calm - N/A   Clear
12:55 PM 59.0 °F - 23.0 °F 25% 30.45 in 10.0 mi NE 8.1 mph - N/A   Clear
1:15 PM 60.8 °F - 19.4 °F 20% 30.45 in 10.0 mi WNW 5.8 mph - N/A   Clear
1:35 PM 62.6 °F - 21.2 °F 20% 30.44 in 10.0 mi NW 8.1 mph - N/A   Clear
1:55 PM 62.6 °F - 21.2 °F 20% 30.43 in 10.0 mi NE 5.8 mph - N/A   Clear
2:15 PM 64.4 °F - 21.2 °F 19% 30.42 in 10.0 mi North 5.8 mph - N/A   Clear
2:35 PM 64.4 °F - 21.2 °F 19% 30.41 in 10.0 mi NW 6.9 mph - N/A   Clear
2:55 PM 64.4 °F - 23.0 °F 21% 30.40 in 10.0 mi North 5.8 mph 17.3 mph N/A   Clear
3:15 PM 66.2 °F - 19.4 °F 17% 30.39 in 10.0 mi NE 6.9 mph - N/A   Clear
3:35 PM 66.2 °F - 19.4 °F 17% 30.39 in 10.0 mi NE 6.9 mph - N/A   Clear
3:55 PM 68.0 °F - 19.4 °F 16% 30.38 in 10.0 mi Calm Calm - N/A   Clear
4:15 PM 68.0 °F - 19.4 °F 16% 30.38 in 10.0 mi NNE 8.1 mph - N/A   Clear
4:35 PM 68.0 °F - 19.4 °F 16% 30.37 in 10.0 mi West 3.5 mph - N/A   Clear
4:55 PM 68.0 °F - 21.2 °F 17% 30.37 in 10.0 mi NNW 8.1 mph - N/A   Clear
5:15 PM 68.0 °F - 19.4 °F 16% 30.37 in 10.0 mi Calm Calm - N/A   Clear
5:35 PM 68.0 °F - 21.2 °F 17% 30.36 in 10.0 mi WNW 4.6 mph - N/A   Clear
5:55 PM 64.4 °F - 21.2 °F 19% 30.36 in 10.0 mi West 3.5 mph - N/A   Clear
6:15 PM 64.4 °F - 19.4 °F 18% 30.35 in 10.0 mi Calm Calm - N/A   Clear
6:35 PM 64.4 °F - 21.2 °F 19% 30.36 in 10.0 mi West 4.6 mph - N/A   Clear
6:55 PM 62.6 °F - 19.4 °F 19% 30.36 in 10.0 mi Calm Calm - N/A   Clear
7:15 PM 60.8 °F - 26.6 °F 27% 30.36 in 10.0 mi WSW 3.5 mph - N/A   Clear
7:35 PM 57.2 °F - 24.8 °F 29% 30.35 in 10.0 mi Calm Calm - N/A   Clear
7:55 PM 55.4 °F - 26.6 °F 33% 30.35 in 10.0 mi SSW 3.5 mph - N/A   Clear
8:15 PM 53.6 °F - 26.6 °F 35% 30.36 in 10.0 mi NNE 5.8 mph - N/A   Clear
8:35 PM 51.8 °F - 24.8 °F 35% 30.36 in 10.0 mi ENE 6.9 mph - N/A   Clear
8:55 PM 51.8 °F - 23.0 °F 33% 30.36 in 10.0 mi East 5.8 mph - N/A   Clear
9:15 PM 51.8 °F - 23.0 °F 33% 30.36 in 10.0 mi East 6.9 mph - N/A   Clear
9:35 PM 51.8 °F - 23.0 °F 33% 30.36 in 10.0 mi East 5.8 mph - N/A   Clear
9:55 PM 51.8 °F - 23.0 °F 33% 30.37 in 10.0 mi East 5.8 mph - N/A   Clear
10:15 PM 51.8 °F - 23.0 °F 33% 30.37 in 10.0 mi East 5.8 mph - N/A   Clear
10:35 PM 50.0 °F - 23.0 °F 35% 30.37 in 10.0 mi East 5.8 mph - N/A   Clear
10:55 PM 50.0 °F - 24.8 °F 37% 30.38 in 10.0 mi East 6.9 mph - N/A   Clear
11:15 PM 48.2 °F - 24.8 °F 40% 30.39 in 10.0 mi East 6.9 mph - N/A   Clear
11:35 PM 46.4 °F 42.9 °F 24.8 °F 43% 30.38 in 10.0 mi East 6.9 mph - N/A   Clear
11:55 PM 46.4 °F 42.4 °F 26.6 °F 46% 30.39 in 10.0 mi East 8.1 mph - N/A   Clear